Weather History for PAWS - November, 2013

Change the Weather History Date:

Wednesday, November 13, 2013

  Actual Average (WUND) Record (WUND)
Temperature  
Mean Temperature 22 °F -  
Max Temperature 26 °F - - (-1)
Min Temperature 17 °F - - (-1)
Degree Days  
Heating Degree Days 44    
Moisture  
Dew Point 16 °F    
Average Humidity 76    
Maximum Humidity 86    
Minimum Humidity 63    
Precipitation  
Precipitation 0.00 in - - ()
Sea Level Pressure  
Sea Level Pressure 30.15 in    
Wind  
Wind Speed - (North)    
Max Wind Speed -    
Max Gust Speed -    
Visibility 10 miles    
Events      
Averages and records for this station are not official NWS values.
T = Trace of Precipitation, MM = Missing Value Source: NWS Daily Summary

Daily Weather History Graph

Daily Weather History Graph

Search for Another Location

Airport or City:

Trip Planner

Search our weather history database for the weather conditions in past years. The results will help you decide how hot, cold, wet, or windy it might be!

Date:

Astronomy

Nov. 13, 2013 Rise Set
Actual Time 9:02 AM AKST 4:21 PM AKST
Civil Twilight 8:10 AM AKST 5:13 PM AKST
Nautical Twilight 7:15 AM AKST 6:08 PM AKST
Astronomical Twilight 6:24 AM AKST 6:59 PM AKST
Moon 3:11 PM AKST (11/13) 4:01 AM AKST (11/13)
Length of Visible Light 9h 03m
Length of Day
7h 19m
Waxing Gibbous, 86% of the Moon is Illuminated
Nov 13
Waxing Gibbous
Nov 17
Full
Nov 25
Last Quarter
Dec 2
New
Dec 9
First Quarter

Hourly Weather History & Observations

Time (AKST) Temp. Dew Point Humidity Pressure Visibility Wind Dir Wind Speed Gust Speed Precip Events Conditions
12:16 AM 17.6 °F 10.4 °F 73% 30.11 in 10.0 mi North - - N/A   Overcast
12:36 AM 17.6 °F 10.4 °F 73% 30.12 in 10.0 mi North - - N/A   Overcast
12:56 AM 17.6 °F 12.2 °F 79% 30.11 in 10.0 mi North - - N/A   Overcast
1:16 AM 17.6 °F 12.2 °F 79% 30.11 in 10.0 mi North - - N/A   Overcast
1:36 AM 17.6 °F 12.2 °F 79% 30.12 in 10.0 mi North - - N/A   Overcast
1:56 AM 17.6 °F 12.2 °F 79% 30.11 in 10.0 mi North - - N/A   Overcast
2:16 AM 17.6 °F 12.2 °F 79% 30.11 in 10.0 mi North - - N/A   Overcast
2:36 AM 17.6 °F 12.2 °F 79% 30.11 in 10.0 mi North - - N/A   Overcast
2:56 AM 17.6 °F 12.2 °F 79% 30.11 in 10.0 mi North - - N/A   Overcast
3:16 AM 17.6 °F 12.2 °F 79% 30.11 in 10.0 mi North - - N/A   Overcast
3:36 AM 19.4 °F 12.2 °F 74% 30.11 in 10.0 mi North - - N/A   Overcast
3:56 AM 19.4 °F 12.2 °F 74% 30.13 in 10.0 mi North - - N/A   Overcast
4:16 AM 19.4 °F 12.2 °F 74% 30.13 in 10.0 mi North - - N/A   Overcast
4:36 AM 17.6 °F 12.2 °F 79% 30.13 in 10.0 mi North - - N/A   Overcast
4:56 AM 17.6 °F 12.2 °F 79% 30.12 in 10.0 mi North - - N/A   Mostly Cloudy
5:16 AM 17.6 °F 12.2 °F 79% 30.13 in 10.0 mi North - - N/A   Scattered Clouds
5:36 AM 17.6 °F 12.2 °F 79% 30.13 in 10.0 mi North - - N/A   Overcast
5:56 AM 17.6 °F 12.2 °F 79% 30.13 in 10.0 mi North - - N/A   Overcast
6:16 AM 17.6 °F 12.2 °F 79% 30.13 in 10.0 mi North - - N/A   Overcast
6:36 AM 17.6 °F 12.2 °F 79% 30.13 in 10.0 mi North - - N/A   Overcast
6:56 AM 17.6 °F 12.2 °F 79% 30.13 in 10.0 mi North - - N/A   Overcast
7:16 AM 19.4 °F 12.2 °F 74% 30.13 in 10.0 mi North - - N/A   Overcast
7:36 AM 19.4 °F 12.2 °F 74% 30.15 in 10.0 mi North - - N/A   Overcast
7:56 AM 19.4 °F 12.2 °F 74% 30.14 in 10.0 mi North - - N/A   Overcast
8:16 AM 19.4 °F 12.2 °F 74% 30.16 in 10.0 mi North - - N/A   Overcast
8:36 AM 21.2 °F 12.2 °F 68% 30.15 in 10.0 mi North - - N/A   Overcast
8:56 AM 21.2 °F 12.2 °F 68% 30.16 in 10.0 mi North - - N/A   Overcast
9:16 AM 21.2 °F 10.4 °F 63% 30.17 in 10.0 mi North - - N/A   Overcast
9:36 AM 21.2 °F 10.4 °F 63% 30.17 in 10.0 mi North - - N/A   Overcast
9:56 AM 21.2 °F 12.2 °F 68% 30.18 in 10.0 mi North - - N/A   Overcast
10:16 AM 21.2 °F 12.2 °F 68% 30.18 in 10.0 mi North - - N/A   Overcast
10:36 AM 21.2 °F 14.0 °F 74% 30.19 in 10.0 mi North - - N/A   Overcast
10:56 AM 23.0 °F 14.0 °F 68% 30.19 in 10.0 mi North - - N/A   Overcast
11:16 AM 23.0 °F 15.8 °F 74% 30.19 in 10.0 mi North - - N/A   Overcast
11:36 AM 23.0 °F 15.8 °F 74% 30.20 in 10.0 mi North - - N/A   Overcast
11:56 AM 24.8 °F 17.6 °F 74% 30.20 in 10.0 mi North - - N/A   Overcast
12:16 PM 24.8 °F 17.6 °F 74% 30.20 in 10.0 mi North - - N/A   Overcast
12:36 PM 24.8 °F 17.6 °F 74% 30.20 in 10.0 mi North - - N/A   Overcast
12:56 PM 24.8 °F 17.6 °F 74% 30.20 in 10.0 mi North - - N/A   Overcast
1:16 PM 24.8 °F 17.6 °F 74% 30.20 in 10.0 mi North - - N/A   Overcast
1:56 PM 26.6 °F 17.6 °F 69% 30.21 in 10.0 mi North - - N/A   Overcast
2:16 PM 24.8 °F 15.8 °F 69% 30.20 in 10.0 mi North - - N/A   Overcast
2:36 PM 24.8 °F 17.6 °F 74% 30.20 in 10.0 mi North - - N/A   Overcast
2:56 PM 26.6 °F 19.4 °F 74% 30.20 in 10.0 mi North - - N/A   Overcast
3:16 PM 24.8 °F 19.4 °F 80% 30.21 in 10.0 mi North - - N/A   Overcast
3:36 PM 24.8 °F 19.4 °F 80% 30.21 in 10.0 mi North - - N/A   Overcast
3:56 PM 24.8 °F 19.4 °F 80% 30.20 in 10.0 mi North - - N/A   Overcast
4:16 PM 24.8 °F 19.4 °F 80% 30.18 in 10.0 mi North - - N/A   Overcast
4:36 PM 24.8 °F 17.6 °F 74% 30.15 in 10.0 mi North - - N/A   Overcast
4:56 PM 23.0 °F 17.6 °F 80% 30.17 in 10.0 mi North - - N/A   Overcast
5:16 PM 24.8 °F 17.6 °F 74% 30.18 in 10.0 mi North - - N/A   Overcast
5:36 PM 24.8 °F 17.6 °F 74% 30.18 in 10.0 mi North - - N/A   Overcast
5:56 PM 24.8 °F 19.4 °F 80% 30.18 in 10.0 mi North - - N/A   Overcast
6:16 PM 24.8 °F 17.6 °F 74% 30.18 in 10.0 mi North - - N/A   Overcast
6:36 PM 24.8 °F 17.6 °F 74% 30.18 in 10.0 mi North - - N/A   Overcast
6:56 PM 24.8 °F 19.4 °F 80% 30.17 in 10.0 mi North - - N/A   Overcast
7:16 PM 23.0 °F 19.4 °F 86% 30.15 in 10.0 mi North - - N/A   Overcast
7:36 PM 24.8 °F 19.4 °F 80% 30.14 in 10.0 mi North - - N/A   Overcast
7:56 PM 24.8 °F 19.4 °F 80% 30.13 in 10.0 mi North - - N/A   Overcast
8:16 PM 24.8 °F 19.4 °F 80% 30.12 in 10.0 mi North - - N/A   Overcast
8:36 PM 24.8 °F 19.4 °F 80% 30.13 in 10.0 mi North - - N/A   Overcast
8:56 PM 24.8 °F 19.4 °F 80% 30.14 in 10.0 mi North - - N/A   Overcast
9:16 PM 24.8 °F 19.4 °F 80% 30.12 in 10.0 mi North - - N/A   Overcast
9:36 PM 24.8 °F 19.4 °F 80% 30.12 in 10.0 mi North - - N/A   Overcast
9:56 PM 24.8 °F 19.4 °F 80% 30.13 in 10.0 mi North - - N/A   Overcast
10:16 PM 24.8 °F 21.2 °F 86% 30.14 in 10.0 mi North - - N/A   Overcast
10:36 PM 24.8 °F 19.4 °F 80% 30.14 in 10.0 mi North - - N/A   Overcast
10:56 PM 24.8 °F 19.4 °F 80% 30.13 in 10.0 mi North - - N/A   Overcast
11:16 PM 24.8 °F 17.6 °F 74% 30.12 in 10.0 mi North - - N/A   Overcast
11:36 PM 24.8 °F 19.4 °F 80% 30.11 in 10.0 mi North - - N/A   Overcast
11:56 PM 24.8 °F 19.4 °F 80% 30.09 in 10.0 mi North - - N/A   Overcast